Dodge City, KS

4:55 AM CDT on April 23, 2018 (GMT -0500)
Dodge City Regional

Weather History for KDDC - February, 2013

Change the Weather History Date:

Thursday, February 7, 2013

  Actual Average Record
Temperature  
Mean Temperature 42 °F -  
Max Temperature 55 °F 44 °F 79 °F (2015)
Min Temperature 30 °F 18 °F -14 °F (1895)
Degree Days  
Heating Degree Days 22    
Moisture  
Dew Point 33 °F    
Average Humidity 64    
Maximum Humidity 100    
Minimum Humidity 14    
Precipitation  
Precipitation 0.00 in - - ()
Sea Level Pressure  
Sea Level Pressure 29.98 in    
Wind  
Wind Speed 12 mph (NNE)    
Max Wind Speed 23 mph    
Max Gust Speed 30 mph    
Visibility 7 miles    
Events Fog    
Averages and records for this station are not official NWS values.
T = Trace of Precipitation, MM = Missing Value Source: NWS Daily Summary

Daily Weather History Graph

Daily Weather History Graph

Search for Another Location

Airport or City:

Astronomy

Feb. 07, 2013 Rise Set
Actual Time 7:37 AM CST 6:10 PM CST
Civil Twilight 7:10 AM CST 6:37 PM CST
Nautical Twilight 6:39 AM CST 7:08 PM CST
Astronomical Twilight 6:09 AM CST 7:39 PM CST
Moon 5:17 AM CST (2/7) 3:38 PM CST (2/7)
Length of Visible Light 11h 27m
Length of Day
10h 32m
Waning Crescent, 9% of the Moon is Illuminated
Feb 7
Waning Crescent
Feb 10
New
Feb 17
First Quarter
Feb 25
Full
Mar 4
Last Quarter

Hourly Weather History & Observations

Time (CST) Temp. Windchill Dew Point Humidity Pressure Visibility Wind Dir Wind Speed Gust Speed Precip Events Conditions
12:03 AM 50.0 °F - 48.2 °F 94% 29.81 in 1.2 mi East 8.1 mph - N/A   Overcast
12:20 AM 50.0 °F - 48.2 °F 94% 29.81 in 1.2 mi East 5.8 mph - N/A   Overcast
12:48 AM 50.0 °F - 48.2 °F 94% 29.81 in 0.8 mi East 8.1 mph - N/A   Overcast
12:52 AM 50.0 °F - 48.9 °F 96% 29.78 in 0.8 mi East 8.1 mph - N/A   Overcast
1:01 AM 51.8 °F - 50.0 °F 94% 29.81 in 1.0 mi East 5.8 mph - N/A   Overcast
1:30 AM 50.0 °F - 48.2 °F 94% 29.82 in 0.8 mi East 4.6 mph - N/A   Overcast
1:52 AM 50.0 °F - 48.9 °F 96% 29.80 in 0.5 mi NW 8.1 mph - N/A Fog Fog
2:08 AM 48.2 °F - 48.2 °F 100% 29.83 in 0.2 mi NNW 9.2 mph - N/A Fog Fog
2:21 AM 46.4 °F 41.5 °F 46.4 °F 100% 29.83 in 0.2 mi NNW 10.4 mph - N/A Fog Fog
2:52 AM 46.9 °F - 46.0 °F 97% 29.81 in 0.2 mi North 11.5 mph - N/A Fog Fog
3:07 AM 46.4 °F 39.8 °F 46.4 °F 100% 29.84 in 1.0 mi North 16.1 mph 21.9 mph N/A   Overcast
3:10 AM 46.4 °F 39.8 °F 46.4 °F 100% 29.84 in 2.0 mi North 16.1 mph - N/A   Overcast
3:16 AM 46.4 °F 39.2 °F 44.6 °F 93% 29.84 in 4.0 mi North 18.4 mph 24.2 mph N/A   Overcast
3:35 AM 42.8 °F 34.3 °F 39.2 °F 87% 29.85 in 8.0 mi North 19.6 mph 26.5 mph N/A   Overcast
3:52 AM 43.0 °F 34.5 °F 37.0 °F 80% 29.84 in 9.0 mi North 19.6 mph 28.8 mph N/A   Overcast
4:52 AM 42.1 °F 33.3 °F 30.9 °F 65% 29.88 in 10.0 mi North 19.6 mph - N/A   Partly Cloudy
5:52 AM 41.0 °F 31.4 °F 30.0 °F 65% 29.92 in 10.0 mi North 21.9 mph 28.8 mph N/A   Overcast
6:52 AM 41.0 °F 31.1 °F 28.0 °F 60% 29.97 in 10.0 mi North 23.0 mph 29.9 mph N/A   Overcast
7:52 AM 39.9 °F 30.2 °F 27.0 °F 60% 30.01 in 10.0 mi North 20.7 mph 28.8 mph N/A   Overcast
8:52 AM 39.9 °F 30.2 °F 27.0 °F 60% 30.05 in 10.0 mi North 20.7 mph - N/A   Partly Cloudy
9:52 AM 43.0 °F 34.2 °F 28.0 °F 56% 30.08 in 10.0 mi North 20.7 mph 27.6 mph N/A   Clear
10:52 AM 48.9 °F - 26.1 °F 41% 30.08 in 10.0 mi North 19.6 mph 28.8 mph N/A   Clear
11:52 AM 52.0 °F - 26.1 °F 37% 30.09 in 10.0 mi North 21.9 mph - N/A   Clear
12:52 PM 54.0 °F - 25.0 °F 33% 30.08 in 10.0 mi North 23.0 mph 29.9 mph N/A   Clear
1:52 PM 55.9 °F - 23.0 °F 28% 30.06 in 10.0 mi NNE 17.3 mph 28.8 mph N/A   Clear
2:52 PM 55.9 °F - 21.0 °F 26% 30.06 in 10.0 mi North 19.6 mph 27.6 mph N/A   Clear
3:52 PM 55.0 °F - 21.0 °F 27% 30.08 in 10.0 mi North 16.1 mph 26.5 mph N/A   Clear
4:52 PM 54.0 °F - 21.0 °F 28% 30.09 in 10.0 mi North 13.8 mph - N/A   Clear
5:52 PM 48.0 °F - 21.9 °F 36% 30.12 in 10.0 mi NNE 5.8 mph - N/A   Clear
6:52 PM 39.0 °F - 19.9 °F 46% 30.17 in 10.0 mi Calm Calm - N/A   Clear
7:52 PM 37.0 °F - 21.0 °F 52% 30.18 in 10.0 mi Calm Calm - N/A   Clear
8:52 PM 39.0 °F 35.7 °F 21.0 °F 49% 30.20 in 10.0 mi East 4.6 mph - N/A   Clear
9:52 PM 37.9 °F 33.5 °F 21.9 °F 53% 30.21 in 10.0 mi SSE 5.8 mph - N/A   Clear
10:52 PM 35.1 °F 30.1 °F 21.0 °F 57% 30.21 in 10.0 mi South 5.8 mph - N/A   Clear
11:52 PM 30.0 °F 25.2 °F 19.9 °F 66% 30.21 in 7.0 mi South 4.6 mph - N/A   Clear